Weather History for Bonilla Island, BC

Change the Weather History Date:

Monday, November 5, 2012

  Actual Average Record
Temperature  
Mean Temperature 52 °F -  
Max Temperature 57 °F - - ()
Min Temperature 48 °F - - ()
Degree Days  
Heating Degree Days 13    
Growing Degree Days 2 (Base 50)    
Moisture  
Dew Point 47 °F    
Average Humidity 81    
Maximum Humidity 91    
Minimum Humidity 66    
Precipitation  
Precipitation 0.08 in - - ()
Sea Level Pressure  
Sea Level Pressure 30.16 in    
Wind  
Wind Speed 19 mph ()    
Max Wind Speed 30 mph    
Max Gust Speed 32 mph    
T = Trace of Precipitation, MM = Missing Value Source: Averaged Metar Reports

Daily Weather History Graph

Daily Weather History Graph

Search for Another Location

Airport:

Trip Planner

Search our weather history database for the weather conditions in past years. The results will help you decide how hot, cold, wet, or windy it might be!

Date:

Astronomy

Nov. 05, 2012 Rise Set
Actual Time 7:50 AM PST 5:00 PM PST
Civil Twilight 7:12 AM PST 5:38 PM PST
Nautical Twilight 6:31 AM PST 6:20 PM PST
Astronomical Twilight 5:50 AM PST 7:00 PM PST
Moon 10:47 PM PST (11/5) 1:14 PM PST (11/5)
Length of Visible Light 10h 25m
Length of Day
9h 10m
Waning Gibbous, 62% of the Moon is Illuminated
Nov 5
Waning Gibbous
Nov 6
Last Quarter
Nov 13
New
Nov 20
First Quarter
Nov 28
Full

Hourly Weather History & Observations

Time (PST) Temp. Dew Point Humidity Pressure Visibility Wind Dir Wind Speed Gust Speed Precip Events Conditions
12:00 AM 50.9 °F 44.2 °F 78% 29.93 in - SSW 29.9 mph - N/A   Unknown
1:00 AM 50.7 °F 43.7 °F 77% 29.98 in - SSW 27.6 mph - N/A   Unknown
3:00 AM 50.2 °F 42.8 °F 76% 30.05 in - SSW 21.9 mph - N/A   Unknown
4:00 AM 50 °F 42 °F 66% 30.09 in - SSW 20.7 mph - -  
4:00 AM 49.6 °F 42.1 °F 75% 30.09 in - SSW 20.7 mph - N/A   Unknown
5:00 AM 50.5 °F 44.1 °F 78% 30.11 in - SSW 18.4 mph - N/A   Unknown
6:00 AM 50.9 °F 45.0 °F 80% 30.15 in - SSW 15.0 mph - N/A   Unknown
7:00 AM 50.4 °F 43.9 °F 78% 30.17 in - SSW 17.3 mph - N/A   Unknown
8:00 AM 49.6 °F 42.3 °F 76% 30.20 in - SSW 20.7 mph - N/A   Unknown
9:00 AM 49.3 °F 42.6 °F 78% 30.22 in - South 17.3 mph - N/A   Unknown
10:00 AM 52 °F 48 °F 80% 30.24 in - South 17.3 mph - -  
10:00 AM 52.2 °F 47.7 °F 85% 30.24 in - South 17.3 mph - N/A   Unknown
11:00 AM 52.7 °F 46.8 °F 80% 30.26 in - South 20.7 mph - N/A   Unknown
12:00 PM 51.6 °F 45.1 °F 79% 30.26 in - South 21.9 mph - N/A   Unknown
2:00 PM 51.6 °F 45.9 °F 81% 30.25 in - South 23.0 mph - N/A   Unknown
3:00 PM 53.4 °F 48.6 °F 84% 30.24 in - South 20.7 mph - N/A   Unknown
4:00 PM 53 °F 48 °F 78% 30.22 in - South 20.7 mph - -  
4:00 PM 53.2 °F 48.2 °F 83% 30.22 in - South 20.7 mph - N/A   Unknown
5:00 PM 53.1 °F 48.2 °F 84% 30.22 in - SSE 15.0 mph - N/A   Unknown
6:00 PM 54.3 °F 50.9 °F 88% 30.20 in - SSE 18.4 mph 25.3 mph N/A   Unknown
7:00 PM 54.5 °F 50.9 °F 88% 30.19 in - SSE 16.1 mph 23.0 mph N/A   Unknown
8:00 PM 53.1 °F 48.9 °F 86% 30.17 in - SSE 24.2 mph 32.2 mph 0.04 in   Unknown
9:00 PM 54.1 °F 50.9 °F 89% 30.15 in - SSE 11.5 mph - 0.05 in   Unknown
10:00 PM 56 °F 53 °F 84% 30.13 in - SSE 19.6 mph - -  
10:00 PM 56.3 °F 52.5 °F 87% 30.13 in - SSE 19.6 mph - N/A   Unknown
11:00 PM 57.6 °F 55.0 °F 91% 30.11 in - SSE 25.3 mph - 0.03 in   Unknown